Vorticity
19 20 14 9 7 7 8 9 10 10 10 9 9 9 7 6 6 5 4 4 3 3 3 3 3 4 4 4 5 6 6 8 7 5 5 6 7 8 9 9 10 11 11
11 12 12 11 11 9 9 10 11 10 9 9 8 7 6 6 5 5 4 3 3 3 3 3 4 4 5 6 7 7 8 6 5 5 4 7 6 9 7 8 9 8 9
10 10 10 10 12 14 14 15 12 11 10 10 8 7 7 7 6 5 4 4 4 4 4 3 4 4 5 6 7 8 8 9 9 7 4 9 7 5 5 8 7 8 8
12 9 9 9 10 12 13 14 12 12 11 10 8 7 6 6 6 5 5 4 4 4 4 3 3 4 4 4 5 7 8 8 8 9 9 9 7 7 8 8 8 8 8
13 9 6 4 8 9 10 14 15 13 11 9 8 7 6 5 5 5 4 4 4 4 3 3 3 3 4 5 5 6 6 7 5 8 10 9 9 8 8 8 6 10 10
8 5 5 5 8 11 11 11 13 13 10 8 6 5 5 5 5 5 5 4 4 3 3 3 4 5 6 6 6 7 7 4 8 9 9 8 8 8 9 9 8 8 4
5 7 8 7 8 7 6 9 10 10 11 11 9 7 6 5 4 4 3 4 4 4 5 6 7 7 7 6 6 4 2 10 8 6 9 9 9 9 7 5 5 5 2
3 8 9 10 8 5 6 6 5 6 8 8 8 8 7 7 8 8 9 11 11 11 10 9 9 8 7 4 0 7 10 5 6 6 11 8 6 6 6 7 6 5 6
3 8 13 15 9 5 5 3 7 6 6 6 6 6 7 6 5 5 5 5 8 9 7 5 4 6 10 6 6 10 8 9 11 12 14 10 7 5 5 5 7 8 9
6 5 8 19 11 5 5 4 5 6 8 7 6 4 2 2 5 15 15 11 10 9 9 7 6 5 8 10 10 10 10 11 12 12 11 7 7 9 7 2 5 5 7
3 7 1 10 14 3 6 7 5 7 5 -3 4 7 13 16 14 9 6 7 6 6 6 8 8 8 8 9 9 9 11 11 10 8 7 8 8 5 6 7 7 7 8
4 8 -1 12 8 15 11 5 1 3 -1 7 13 16 10 7 5 4 4 4 5 5 4 6 9 9 10 11 11 11 11 11 10 10 10 10 9 9 9 8 6 7 6
-13 -20 -17 -4 17 18 -4 5 31 1 15 19 11 3 4 2 4 7 7 8 10 11 14 13 13 11 10 8 6 7 7 7 8 8 8 8 8 9 9 9 8 8 8
-4 28 13 10 15 12 15 22 22 17 12 10 -0 3 4 6 6 6 5 7 8 8 8 8 7 7 8 9 10 9 9 9 9 9 10 10 10 10 10 10 9 9 10
49 13 14 19 27 26 27 17 11 4 -2 -1 3 5 6 7 7 11 11 10 10 8 7 8 10 9 8 7 6 6 6 6 7 8 9 9 9 9 9 8 8 8 7
8 19 21 19 12 8 -1 2 7 7 6 5 5 9 13 10 9 9 8 6 8 10 10 12 12 7 7 8 9 11 12 14 16 16 16 15 14 13 13 13 13 13 15
22 26 14 10 9 11 10 8 7 10 13 14 12 9 8 6 7 9 12 14 14 14 11 7 8 8 12 15 17 18 17 16 15 15 16 17 17 17 17 18 17 17 15
16 9 6 12 11 7 8 12 12 9 7 6 5 6 8 12 13 13 14 10 12 10 7 7 8 11 17 17 16 14 14 14 14 13 13 14 14 15 14 14 14 15 16
5 14 8 8 9 10 8 6 7 7 7 8 11 12 13 13 15 13 9 9 10 9 8 9 8 10 15 15 14 13 12 11 12 13 14 15 14 15 16 17 17 17 17
10 8 6 6 6 6 6 6 8 10 13 12 11 11 11 9 11 11 9 8 9 8 8 7 8 9 14 15 13 11 10 12 13 12 13 13 13 13 13 13 14 15 17
10 9 5 5 6 7 7 10 9 8 10 13 13 12 12 16 13 10 10 9 7 8 9 9 10 11 13 15 12 10 10 11 11 12 14 16 17 17 17 15 14 15 17
4 5 7 9 8 8 9 10 12 13 12 11 11 10 9 9 9 9 9 9 9 9 10 9 10 12 13 13 11 11 10 9 10 12 14 17 17 15 14 15 13 9 8
6 6 6 7 7 8 11 14 13 11 10 11 11 11 11 11 11 11 11 11 11 11 11 9 9 12 14 13 12 11 11 12 12 14 14 14 11 11 12 15 14 15 13
14 19 21 17 16 15 13 14 13 12 11 10 11 12 14 13 13 13 13 13 12 12 11 11 10 12 13 14 12 11 12 13 14 16 15 12 10 10 8 6 5 5 2
3 2 5 7 11 12 10 12 16 17 18 19 18 17 16 14 13 12 11 11 11 11 11 11 12 12 13 12 10 12 11 12 13 15 15 13 10 11 13 13 11 11 11
4 4 6 8 12 13 15 15 14 10 9 9 10 10 11 13 14 14 14 15 14 13 12 12 13 12 11 10 10 11 11 11 13 15 7 10 10 11 12 13 15 19 20
Height
3094 3095 3096 3098 3099 3100 3101 3102 3104 3106 3109 3111 3113 3115 3117 3118 3120 3121 3123 3124 3124 3125 3126 3126 3126 3127 3127 3127 3127 3127 3127 3126 3125 3125 3124 3123 3122 3121 3120 3120 3120 3121 3121
3092 3092 3093 3094 3095 3096 3097 3098 3100 3102 3104 3106 3108 3111 3112 3114 3116 3117 3118 3119 3120 3121 3121 3122 3122 3123 3123 3123 3122 3122 3121 3122 3122 3121 3121 3120 3120 3118 3116 3115 3115 3116 3116
3089 3090 3090 3091 3091 3092 3093 3094 3095 3097 3100 3103 3105 3107 3109 3110 3112 3113 3114 3115 3116 3117 3117 3118 3118 3118 3118 3118 3118 3117 3116 3115 3115 3115 3116 3115 3115 3114 3113 3111 3110 3110 3110
3087 3087 3087 3088 3088 3089 3089 3090 3092 3093 3096 3098 3101 3103 3105 3107 3108 3110 3111 3112 3112 3112 3112 3112 3112 3112 3112 3112 3112 3112 3111 3110 3109 3109 3109 3109 3108 3108 3110 3108 3106 3105 3105
3084 3084 3085 3085 3086 3086 3086 3087 3088 3090 3092 3094 3097 3099 3101 3102 3103 3105 3106 3106 3107 3107 3107 3107 3106 3106 3106 3106 3105 3104 3104 3104 3103 3102 3102 3102 3102 3102 3102 3104 3103 3100 3099
3080 3081 3081 3082 3083 3083 3083 3083 3085 3087 3088 3090 3092 3093 3095 3097 3098 3099 3100 3100 3101 3101 3101 3101 3100 3100 3099 3099 3098 3097 3097 3096 3096 3095 3095 3094 3094 3095 3095 3096 3097 3097 3096
3077 3077 3077 3078 3078 3079 3080 3081 3081 3082 3083 3085 3087 3088 3090 3091 3092 3093 3094 3094 3095 3095 3095 3094 3094 3093 3092 3091 3090 3089 3089 3089 3089 3088 3088 3087 3086 3086 3087 3087 3088 3089 3091
3072 3073 3073 3073 3073 3074 3076 3076 3077 3078 3079 3080 3081 3082 3084 3085 3086 3086 3086 3087 3087 3087 3087 3086 3086 3085 3084 3084 3083 3082 3081 3081 3081 3081 3081 3080 3079 3079 3078 3079 3079 3079 3081
3068 3068 3068 3068 3069 3069 3071 3072 3073 3074 3074 3075 3076 3078 3079 3079 3080 3080 3080 3079 3079 3079 3079 3079 3078 3078 3077 3076 3075 3074 3073 3073 3072 3072 3072 3072 3071 3071 3070 3070 3069 3069 3069
3063 3064 3064 3064 3064 3064 3065 3066 3066 3068 3069 3070 3071 3072 3072 3072 3072 3072 3071 3071 3071 3071 3070 3070 3070 3069 3068 3067 3066 3066 3065 3064 3063 3063 3063 3064 3063 3062 3062 3061 3060 3060 3059
3057 3058 3059 3060 3061 3061 3060 3059 3060 3061 3062 3063 3063 3063 3064 3064 3064 3064 3064 3064 3063 3063 3062 3062 3061 3060 3058 3057 3057 3056 3055 3055 3054 3053 3053 3054 3052 3053 3052 3051 3051 3049 3047
3052 3053 3053 3054 3054 3054 3054 3053 3053 3052 3053 3054 3054 3055 3056 3056 3056 3056 3056 3056 3055 3055 3054 3053 3052 3051 3050 3048 3047 3046 3045 3045 3045 3044 3043 3043 3042 3042 3041 3039 3039 3039 3038
3046 3045 3045 3045 3046 3045 3044 3044 3044 3044 3045 3046 3047 3048 3048 3048 3048 3048 3048 3047 3047 3046 3045 3044 3043 3041 3040 3039 3038 3036 3035 3034 3033 3033 3032 3032 3031 3031 3030 3028 3027 3027 3026
3037 3037 3035 3035 3036 3037 3037 3037 3037 3038 3038 3039 3040 3040 3040 3040 3040 3039 3038 3038 3037 3036 3035 3034 3033 3032 3031 3029 3027 3025 3023 3022 3021 3020 3020 3019 3018 3018 3018 3017 3016 3015 3014
3025 3025 3026 3027 3028 3028 3029 3029 3031 3032 3032 3032 3033 3033 3033 3032 3032 3032 3031 3029 3029 3028 3027 3025 3023 3022 3020 3018 3016 3014 3012 3009 3008 3007 3006 3005 3004 3004 3004 3003 3004 3003 3001
3018 3018 3018 3020 3022 3023 3024 3024 3025 3026 3026 3026 3027 3027 3027 3026 3025 3024 3023 3022 3021 3019 3018 3016 3015 3012 3010 3007 3004 3001 2998 2997 2995 2993 2993 2991 2989 2988 2988 2988 2987 2987 2986
3010 3011 3013 3015 3017 3018 3019 3020 3020 3021 3021 3020 3020 3019 3019 3017 3017 3015 3014 3013 3012 3011 3009 3007 3005 3002 2999 2995 2992 2989 2986 2985 2983 2981 2979 2977 2975 2974 2973 2973 2972 2972 2971
3007 3008 3008 3010 3011 3012 3013 3014 3015 3015 3015 3014 3013 3012 3011 3009 3009 3007 3006 3005 3004 3002 3000 2998 2995 2992 2988 2984 2981 2978 2975 2974 2971 2969 2967 2964 2963 2961 2958 2957 2957 2956 2956
3003 3003 3003 3004 3006 3007 3008 3008 3008 3008 3008 3007 3006 3005 3004 3002 3001 2998 2997 2996 2995 2993 2991 2989 2986 2982 2979 2974 2971 2968 2965 2963 2961 2958 2956 2953 2951 2949 2947 2945 2943 2942 2942
2998 2999 3000 3002 3003 3002 3002 3002 3002 3001 3000 2999 2998 2997 2995 2993 2991 2989 2988 2987 2985 2984 2981 2979 2975 2971 2968 2965 2961 2957 2954 2953 2950 2948 2946 2943 2940 2937 2936 2934 2932 2930 2931
2996 2997 2997 2997 2997 2996 2996 2995 2994 2993 2992 2991 2989 2987 2985 2983 2982 2981 2979 2977 2975 2973 2971 2968 2965 2960 2957 2954 2951 2947 2943 2940 2938 2936 2935 2934 2931 2928 2926 2924 2922 2921 2921
2991 2991 2991 2991 2990 2990 2989 2988 2986 2985 2983 2981 2979 2978 2976 2975 2973 2972 2970 2968 2966 2964 2961 2958 2955 2952 2949 2945 2942 2938 2934 2931 2928 2926 2924 2923 2921 2919 2917 2916 2915 2914 2913
2985 2985 2985 2984 2983 2982 2980 2979 2977 2976 2974 2973 2971 2969 2967 2966 2964 2963 2961 2959 2956 2953 2952 2949 2947 2945 2941 2938 2933 2930 2927 2923 2919 2916 2914 2912 2911 2909 2908 2907 2906 2906 2905
2979 2979 2979 2977 2975 2974 2972 2971 2970 2969 2967 2965 2962 2961 2959 2957 2955 2953 2951 2950 2947 2945 2943 2940 2937 2935 2932 2929 2926 2922 2918 2915 2911 2908 2906 2904 2902 2901 2900 2898 2898 2897 2896
2975 2974 2973 2970 2968 2967 2964 2963 2962 2961 2959 2957 2955 2953 2952 2950 2948 2945 2943 2941 2939 2936 2934 2931 2928 2925 2922 2919 2915 2912 2908 2905 2902 2899 2897 2895 2893 2892 2891 2890 2888 2887 2886
2969 2968 2966 2964 2962 2960 2957 2956 2955 2954 2952 2950 2948 2946 2945 2942 2940 2938 2936 2932 2930 2928 2925 2922 2918 2915 2912 2909 2906 2903 2900 2897 2894 2891 2888 2887 2885 2883 2881 2879 2877 2876 2875